ProjectID,Date,Electric Generation,Electric Utility Import,Facility Electric Load
,YYYY-MM-DD,kW,kW,kW
1330,2020-03-22,676.6086956521739,,676.6086956521739
1330,2020-03-23,126.66666666666667,,126.66666666666667
1330,2020-03-24,229.20833333333334,,229.20833333333334
1330,2020-03-25,443.5,,443.5
1330,2020-03-26,397.2916666666667,,397.2916666666667
1330,2020-03-27,526.25,,526.25
1330,2020-03-28,119.20833333333333,,119.20833333333333
1330,2020-03-29,302.8333333333333,,302.8333333333333
1330,2020-03-30,137.41666666666666,,137.41666666666666
1330,2020-03-31,150.29166666666666,,150.29166666666666
1330,2020-04-01,690.9166666666666,,690.9166666666666
1330,2020-04-02,695.0,,695.0
1330,2020-04-03,325.7083333333333,,325.7083333333333
1330,2020-04-04,330.25,,330.25
1330,2020-04-05,384.9583333333333,,384.9583333333333
1330,2020-04-06,660.0833333333334,,660.0833333333334
1330,2020-04-07,441.875,,441.875
1330,2020-04-08,349.5,,349.5
1330,2020-04-09,264.7083333333333,,264.7083333333333
1330,2020-04-10,350.625,,350.625
1330,2020-04-11,523.1666666666666,,523.1666666666666
1330,2020-04-12,326.0416666666667,,326.0416666666667
1330,2020-04-13,84.29166666666667,,84.29166666666667
1330,2020-04-14,631.3333333333334,,631.3333333333334
1330,2020-04-15,379.625,,379.625
1330,2020-04-16,168.58333333333334,,168.58333333333334
1330,2020-04-17,280.25,,280.25
1330,2020-04-18,588.5416666666666,,588.5416666666666
1330,2020-04-19,185.5,,185.5
1330,2020-04-20,688.3333333333334,,688.3333333333334
1330,2020-04-21,383.2083333333333,,383.2083333333333
1330,2020-04-22,431.3333333333333,,431.3333333333333
1330,2020-04-23,172.75,,172.75
1330,2020-04-24,348.125,,348.125
1330,2020-04-25,723.625,,723.625
1330,2020-04-26,150.5,,150.5
1330,2020-04-27,705.4583333333334,,705.4583333333334
1330,2020-04-28,366.9583333333333,,366.9583333333333
1330,2020-04-29,293.5833333333333,,293.5833333333333
1330,2020-04-30,195.5,,195.5
1330,2020-05-01,264.625,,264.625
1330,2020-05-02,325.9583333333333,,325.9583333333333
1330,2020-05-03,685.4166666666666,,685.4166666666666
1330,2020-05-04,415.0833333333333,,415.0833333333333
1330,2020-05-05,647.2083333333334,,647.2083333333334
1330,2020-05-06,640.125,,640.125
1330,2020-05-07,539.4166666666666,,539.4166666666666
1330,2020-05-08,332.875,,332.875
1330,2020-05-09,368.5833333333333,,368.5833333333333
1330,2020-05-10,263.75,,263.75
1330,2020-05-11,200.70833333333334,,200.70833333333334
1330,2020-05-12,492.4583333333333,,492.4583333333333
1330,2020-05-13,748.4166666666666,,748.4166666666666
1330,2020-05-14,261.375,,261.375
1330,2020-05-15,0.0,,0.0
1330,2020-05-16,0.0,,0.0
1330,2020-05-17,0.0,,0.0
1330,2020-05-18,0.0,,0.0
1330,2020-05-19,0.0,,0.0
1330,2020-05-20,0.0,,0.0
1330,2020-05-21,0.0,,0.0
1330,2020-05-22,0.0,,0.0
1330,2020-05-23,0.0,,0.0
1330,2020-05-24,718.5,,718.5
1330,2020-05-25,695.9166666666666,,695.9166666666666
1330,2020-05-26,715.5,,715.5
1330,2020-05-27,605.2916666666666,,605.2916666666666
1330,2020-05-28,264.7916666666667,,264.7916666666667
1330,2020-05-29,0.0,,0.0
1330,2020-05-30,0.0,,0.0
1330,2020-05-31,0.0,,0.0
1330,2020-06-01,730.2083333333334,,730.2083333333334
1330,2020-06-02,533.375,,533.375
1330,2020-06-03,336.5416666666667,,336.5416666666667
1330,2020-06-04,701.2083333333334,,701.2083333333334
1330,2020-06-05,737.0416666666666,,737.0416666666666
1330,2020-06-06,650.2083333333334,,650.2083333333334
1330,2020-06-07,679.4166666666666,,679.4166666666666
1330,2020-06-08,743.875,,743.875
1330,2020-06-09,723.375,,723.375
1330,2020-06-10,685.7916666666666,,685.7916666666666
1330,2020-06-11,691.5416666666666,,691.5416666666666
1330,2020-06-12,651.7083333333334,,651.7083333333334
1330,2020-06-13,712.0416666666666,,712.0416666666666
1330,2020-06-14,684.125,,684.125
1330,2020-06-15,762.125,,762.125
1330,2020-06-16,751.75,,751.75
1330,2020-06-17,743.3333333333334,,743.3333333333334
1330,2020-06-18,661.625,,661.625
1330,2020-06-19,733.625,,733.625
1330,2020-06-20,727.5833333333334,,727.5833333333334
1330,2020-06-21,722.8333333333334,,722.8333333333334
1330,2020-06-22,521.75,,521.75
1330,2020-06-23,391.0833333333333,,391.0833333333333
1330,2020-06-24,520.5416666666666,,520.5416666666666
1330,2020-06-25,735.375,,735.375
1330,2020-06-26,709.5,,709.5
1330,2020-06-27,514.9583333333334,,514.9583333333334
1330,2020-06-28,552.3333333333334,,552.3333333333334
1330,2020-06-29,714.8333333333334,,714.8333333333334
1330,2020-06-30,629.75,,629.75
1330,2020-07-01,656.8333333333334,,656.8333333333334
1330,2020-07-02,716.75,,716.75
1330,2020-07-03,661.7916666666666,,661.7916666666666
1330,2020-07-04,727.75,,727.75
1330,2020-07-05,678.0416666666666,,678.0416666666666
1330,2020-07-06,632.7916666666666,,632.7916666666666
1330,2020-07-07,709.625,,709.625
1330,2020-07-08,644.5416666666666,,644.5416666666666
1330,2020-07-09,690.7083333333334,,690.7083333333334
1330,2020-07-10,540.75,,540.75
1330,2020-07-11,217.70833333333334,,217.70833333333334
1330,2020-07-12,666.2083333333334,,666.2083333333334
1330,2020-07-13,406.3333333333333,,406.3333333333333
1330,2020-07-14,535.2083333333334,,535.2083333333334
1330,2020-07-15,679.75,,679.75
1330,2020-07-16,177.41666666666666,,177.41666666666666
1330,2020-07-17,661.875,,661.875
1330,2020-07-18,710.4583333333334,,710.4583333333334
1330,2020-07-19,425.4166666666667,,425.4166666666667
1330,2020-07-20,691.3333333333334,,691.3333333333334
1330,2020-07-21,523.9166666666666,,523.9166666666666
1330,2020-07-22,379.9166666666667,,379.9166666666667
1330,2020-07-23,517.1666666666666,,517.1666666666666
1330,2020-07-24,606.9583333333334,,606.9583333333334
1330,2020-07-25,692.1666666666666,,692.1666666666666
1330,2020-07-26,700.5833333333334,,700.5833333333334
1330,2020-07-27,476.0833333333333,,476.0833333333333
1330,2020-07-28,703.4166666666666,,703.4166666666666
1330,2020-07-29,0.0,,0.0
1330,2020-07-30,608.7083333333334,,608.7083333333334
1330,2020-07-31,576.375,,576.375
1330,2020-08-01,487.0,,487.0
1330,2020-08-02,300.3333333333333,,300.3333333333333
1330,2020-08-03,564.1666666666666,,564.1666666666666
1330,2020-08-04,319.125,,319.125
1330,2020-08-05,612.3333333333334,,612.3333333333334
1330,2020-08-06,656.5416666666666,,656.5416666666666
1330,2020-08-07,596.1666666666666,,596.1666666666666
1330,2020-08-08,611.3333333333334,,611.3333333333334
1330,2020-08-09,631.5833333333334,,631.5833333333334
1330,2020-08-10,674.5833333333334,,674.5833333333334
1330,2020-08-11,530.0416666666666,,530.0416666666666
1330,2020-08-12,636.9166666666666,,636.9166666666666
1330,2020-08-13,673.25,,673.25
1330,2020-08-14,689.0,,689.0
1330,2020-08-15,517.4583333333334,,517.4583333333334
1330,2020-08-16,368.9583333333333,,368.9583333333333
1330,2020-08-17,431.7083333333333,,431.7083333333333
1330,2020-08-18,550.0,,550.0
1330,2020-08-19,625.125,,625.125
1330,2020-08-20,163.08333333333334,,163.08333333333334
1330,2020-08-21,0.0,,0.0
1330,2020-08-22,44.333333333333336,,44.333333333333336
1330,2020-08-23,662.875,,662.875
1330,2020-08-24,607.3333333333334,,607.3333333333334
1330,2020-08-25,590.875,,590.875
1330,2020-08-26,420.25,,420.25
1330,2020-08-27,366.5833333333333,,366.5833333333333
1330,2020-08-28,266.5416666666667,,266.5416666666667
1330,2020-08-29,0.0,,0.0
1330,2020-08-30,557.1666666666666,,557.1666666666666
1330,2020-08-31,632.2083333333334,,632.2083333333334
1330,2020-09-01,609.3333333333334,,609.3333333333334
1330,2020-09-02,331.625,,331.625
1330,2020-09-03,546.5416666666666,,546.5416666666666
1330,2020-09-04,516.4166666666666,,516.4166666666666
1330,2020-09-05,235.29166666666666,,235.29166666666666
1330,2020-09-06,620.4166666666666,,620.4166666666666
1330,2020-09-07,154.875,,154.875
1330,2020-09-08,446.875,,446.875
1330,2020-09-09,587.5416666666666,,587.5416666666666
1330,2020-09-10,173.83333333333334,,173.83333333333334
1330,2020-09-11,443.25,,443.25
1330,2020-09-12,559.1666666666666,,559.1666666666666
1330,2020-09-13,283.4583333333333,,283.4583333333333
1330,2020-09-14,530.25,,530.25
1330,2020-09-15,505.9166666666667,,505.9166666666667
1330,2020-09-16,499.7916666666667,,499.7916666666667
1330,2020-09-17,398.7083333333333,,398.7083333333333
1330,2020-09-18,573.25,,573.25
1330,2020-09-19,632.9166666666666,,632.9166666666666
1330,2020-09-20,646.7083333333334,,646.7083333333334
1330,2020-09-21,625.375,,625.375
1330,2020-09-22,531.3333333333334,,531.3333333333334
1330,2020-09-23,594.5833333333334,,594.5833333333334
1330,2020-09-24,444.1666666666667,,444.1666666666667
1330,2020-09-25,546.5,,546.5
1330,2020-09-26,532.375,,532.375
1330,2020-09-27,545.875,,545.875
1330,2020-09-28,466.2083333333333,,466.2083333333333
1330,2020-09-29,215.79166666666666,,215.79166666666666
1330,2020-09-30,83.0,,83.0
1330,2020-10-01,383.6666666666667,,383.6666666666667
1330,2020-10-02,256.9583333333333,,256.9583333333333
1330,2020-10-03,300.4166666666667,,300.4166666666667
1330,2020-10-04,251.29166666666666,,251.29166666666666
1330,2020-10-05,320.375,,320.375
1330,2020-10-06,479.375,,479.375
1330,2020-10-07,314.5833333333333,,314.5833333333333
1330,2020-10-08,379.0416666666667,,379.0416666666667
1330,2020-10-09,530.625,,530.625
1330,2020-10-10,323.75,,323.75
1330,2020-10-11,558.8333333333334,,558.8333333333334
1330,2020-10-12,278.4583333333333,,278.4583333333333
1330,2020-10-13,531.375,,531.375
1330,2020-10-14,523.8333333333334,,523.8333333333334
1330,2020-10-15,102.08333333333333,,102.08333333333333
1330,2020-10-16,473.6666666666667,,473.6666666666667
1330,2020-10-17,332.4583333333333,,332.4583333333333
1330,2020-10-18,130.95833333333334,,130.95833333333334
1330,2020-10-19,37.916666666666664,,37.916666666666664
1330,2020-10-20,129.91666666666666,,129.91666666666666
1330,2020-10-21,102.20833333333333,,102.20833333333333
1330,2020-10-22,78.54166666666667,,78.54166666666667
1330,2020-10-23,469.1666666666667,,469.1666666666667
1330,2020-10-24,166.08333333333334,,166.08333333333334
1330,2020-10-25,206.83333333333334,,206.83333333333334
1330,2020-10-26,75.33333333333333,,75.33333333333333
1330,2020-10-27,120.25,,120.25
1330,2020-10-28,221.875,,221.875
1330,2020-10-29,36.208333333333336,,36.208333333333336
1330,2020-10-30,59.833333333333336,,59.833333333333336
1330,2020-10-31,0.0,,0.0
1330,2020-11-01,0.0,,0.0
1330,2020-11-02,0.0,,0.0
1330,2020-11-03,0.0,,0.0
1330,2020-11-04,0.0,,0.0
1330,2020-11-05,0.0,,0.0
1330,2020-11-06,0.0,,0.0
1330,2020-11-07,0.0,,0.0
1330,2020-11-08,0.0,,0.0
1330,2020-11-09,0.0,,0.0
1330,2020-11-10,0.0,,0.0
1330,2020-11-11,0.0,,0.0
1330,2020-11-12,404.7916666666667,,404.7916666666667
1330,2020-11-13,105.25,,105.25
1330,2020-11-14,437.375,,437.375
1330,2020-11-15,33.291666666666664,,33.291666666666664
1330,2020-11-16,168.375,,168.375
1330,2020-11-17,190.66666666666666,,190.66666666666666
1330,2020-11-18,156.29166666666666,,156.29166666666666
1330,2020-11-19,239.91666666666666,,239.91666666666666
1330,2020-11-20,310.7083333333333,,310.7083333333333
1330,2020-11-21,75.70833333333333,,75.70833333333333
1330,2020-11-22,2.8333333333333335,,2.8333333333333335
1330,2020-11-23,150.58333333333334,,150.58333333333334
1330,2020-11-24,0.0,,0.0
1330,2020-11-25,0.0,,0.0
1330,2020-11-26,0.0,,0.0
1330,2020-11-27,0.0,,0.0
1330,2020-11-28,0.0,,0.0
1330,2020-11-29,0.0,,0.0
1330,2020-11-30,0.0,,0.0
1330,2020-12-01,11.541666666666666,,11.541666666666666
1330,2020-12-02,303.625,,303.625
1330,2020-12-03,245.5,,245.5
1330,2020-12-04,29.916666666666668,,29.916666666666668
1330,2020-12-05,0.0,,0.0
1330,2020-12-06,0.0,,0.0
1330,2020-12-07,0.0,,0.0
1330,2020-12-08,0.0,,0.0
1330,2020-12-09,0.0,,0.0
1330,2020-12-10,93.66666666666667,,93.66666666666667
1330,2020-12-11,263.9583333333333,,263.9583333333333
1330,2020-12-12,47.208333333333336,,47.208333333333336
1330,2020-12-13,111.33333333333333,,111.33333333333333
1330,2020-12-14,52.791666666666664,,52.791666666666664
1330,2020-12-15,73.91666666666667,,73.91666666666667
1330,2020-12-16,85.0,,85.0
1330,2020-12-17,0.6666666666666666,,0.6666666666666666
1330,2020-12-18,48.125,,48.125
1330,2020-12-19,51.125,,51.125
1330,2020-12-20,12.833333333333334,,12.833333333333334
1330,2020-12-21,28.916666666666668,,28.916666666666668
1330,2020-12-22,142.25,,142.25
1330,2020-12-23,134.54166666666666,,134.54166666666666
1330,2020-12-24,17.083333333333332,,17.083333333333332
1330,2020-12-25,0.5833333333333334,,0.5833333333333334
1330,2020-12-26,10.541666666666666,,10.541666666666666
1330,2020-12-27,166.16666666666666,,166.16666666666666
1330,2020-12-28,18.5,,18.5
1330,2020-12-29,333.7083333333333,,333.7083333333333
1330,2020-12-30,48.083333333333336,,48.083333333333336
1330,2020-12-31,189.29166666666666,,189.29166666666666
1330,2021-01-01,69.16666666666667,,69.16666666666667
1330,2021-01-02,91.54166666666667,,91.54166666666667
1330,2021-01-03,29.0,,29.0
1330,2021-01-04,42.5,,42.5
1330,2021-01-05,62.541666666666664,,62.541666666666664
1330,2021-01-06,54.666666666666664,,54.666666666666664
1330,2021-01-07,53.208333333333336,,53.208333333333336
1330,2021-01-08,40.541666666666664,,40.541666666666664
1330,2021-01-09,331.3333333333333,,331.3333333333333
1330,2021-01-10,116.16666666666667,,116.16666666666667
1330,2021-01-11,123.25,,123.25
1330,2021-01-12,9.5,,9.5
1330,2021-01-13,85.54166666666667,,85.54166666666667
1330,2021-01-14,57.875,,57.875
1330,2021-01-15,65.20833333333333,,65.20833333333333
1330,2021-01-16,176.83333333333334,,176.83333333333334
1330,2021-01-17,164.45833333333334,,164.45833333333334
1330,2021-01-18,77.29166666666667,,77.29166666666667
1330,2021-01-19,51.375,,51.375
1330,2021-01-20,82.20833333333333,,82.20833333333333
1330,2021-01-21,72.0,,72.0
1330,2021-01-22,85.75,,85.75
1330,2021-01-23,306.5416666666667,,306.5416666666667
1330,2021-01-24,136.25,,136.25
1330,2021-01-25,323.125,,323.125
1330,2021-01-26,3.8333333333333335,,3.8333333333333335
1330,2021-01-27,8.0,,8.0
1330,2021-01-28,15.583333333333334,,15.583333333333334
1330,2021-01-29,12.333333333333334,,12.333333333333334
1330,2021-01-30,19.041666666666668,,19.041666666666668
1330,2021-01-31,26.625,,26.625
1330,2021-02-01,10.458333333333334,,10.458333333333334
1330,2021-02-02,14.958333333333334,,14.958333333333334
1330,2021-02-03,142.66666666666666,,142.66666666666666
1330,2021-02-04,472.5,,472.5
1330,2021-02-05,243.375,,243.375
1330,2021-02-06,147.95833333333334,,147.95833333333334
1330,2021-02-07,274.125,,274.125
1330,2021-02-08,383.0,,383.0
1330,2021-02-09,18.75,,18.75
1330,2021-02-10,50.083333333333336,,50.083333333333336
1330,2021-02-11,91.58333333333333,,91.58333333333333
1330,2021-02-12,170.45833333333334,,170.45833333333334
1330,2021-02-13,122.375,,122.375
1330,2021-02-14,266.3333333333333,,266.3333333333333
1330,2021-02-15,129.04166666666666,,129.04166666666666
1330,2021-02-16,2.3333333333333335,,2.3333333333333335
1330,2021-02-17,66.375,,66.375
1330,2021-02-18,64.66666666666667,,64.66666666666667
1330,2021-02-19,49.166666666666664,,49.166666666666664
1330,2021-02-20,116.125,,116.125
1330,2021-02-21,320.8333333333333,,320.8333333333333
1330,2021-02-22,56.625,,56.625
1330,2021-02-23,70.83333333333333,,70.83333333333333
1330,2021-02-24,412.875,,412.875
1330,2021-02-25,531.0833333333334,,531.0833333333334
1330,2021-02-26,26.333333333333332,,26.333333333333332
1330,2021-02-27,268.4583333333333,,268.4583333333333
1330,2021-02-28,146.66666666666666,,146.66666666666666
1330,2021-03-01,170.91666666666666,,170.91666666666666
1330,2021-03-02,444.0416666666667,,444.0416666666667
1330,2021-03-03,410.6666666666667,,410.6666666666667
1330,2021-03-04,481.6666666666667,,481.6666666666667
1330,2021-03-05,598.5833333333334,,598.5833333333334
1330,2021-03-06,276.2916666666667,,276.2916666666667
1330,2021-03-07,410.8333333333333,,410.8333333333333
1330,2021-03-08,401.7083333333333,,401.7083333333333
1330,2021-03-09,609.0416666666666,,609.0416666666666
1330,2021-03-10,526.9583333333334,,526.9583333333334
1330,2021-03-11,237.70833333333334,,237.70833333333334
1330,2021-03-12,581.9583333333334,,581.9583333333334
1330,2021-03-13,636.2916666666666,,636.2916666666666
1330,2021-03-14,540.2083333333334,,540.2083333333334
1330,2021-03-15,643.75,,643.75
1330,2021-03-16,180.79166666666666,,180.79166666666666
1330,2021-03-17,536.625,,536.625
1330,2021-03-18,135.41666666666666,,135.41666666666666
1330,2021-03-19,669.2916666666666,,669.2916666666666
1330,2021-03-20,664.0416666666666,,664.0416666666666
1330,2021-03-21,657.0833333333334,,657.0833333333334
1330,2021-03-22,646.75,,646.75
1330,2021-03-23,472.4583333333333,,472.4583333333333
1330,2021-03-24,484.3333333333333,,484.3333333333333
1330,2021-03-25,567.4166666666666,,567.4166666666666
1330,2021-03-26,105.83333333333333,,105.83333333333333
1330,2021-03-27,425.4583333333333,,425.4583333333333
1330,2021-03-28,159.20833333333334,,159.20833333333334
1330,2021-03-29,468.2083333333333,,468.2083333333333
1330,2021-03-30,656.3333333333334,,656.3333333333334
1330,2021-03-31,166.5,,166.5
1330,2021-04-01,376.625,,376.625
1330,2021-04-02,711.25,,711.25
1330,2021-04-03,393.5,,393.5
1330,2021-04-04,664.5,,664.5
1330,2021-04-05,471.3333333333333,,471.3333333333333
1330,2021-04-06,577.3333333333334,,577.3333333333334
1330,2021-04-07,659.625,,659.625
1330,2021-04-08,0.0,,0.0
1330,2021-04-09,0.0,,0.0
1330,2021-04-10,0.0,,0.0
1330,2021-04-11,0.0,,0.0
1330,2021-04-12,0.0,,0.0
1330,2021-04-13,0.0,,0.0
1330,2021-04-14,0.0,,0.0
1330,2021-04-15,0.0,,0.0
1330,2021-04-16,0.0,,0.0
1330,2021-04-17,0.0,,0.0
1330,2021-04-18,556.25,,556.25
1330,2021-04-19,636.0416666666666,,636.0416666666666
1330,2021-04-20,283.3333333333333,,283.3333333333333
1330,2021-04-21,101.375,,101.375
1330,2021-04-22,396.4583333333333,,396.4583333333333
1330,2021-04-23,721.3333333333334,,721.3333333333334
1330,2021-04-24,49.083333333333336,,49.083333333333336
1330,2021-04-25,418.9166666666667,,418.9166666666667
1330,2021-04-26,649.0416666666666,,649.0416666666666
1330,2021-04-27,600.4583333333334,,600.4583333333334
1330,2021-04-28,326.9583333333333,,326.9583333333333
1330,2021-04-29,101.33333333333333,,101.33333333333333
1330,2021-04-30,345.5,,345.5
1330,2021-05-01,684.25,,684.25
1330,2021-05-02,416.7083333333333,,416.7083333333333
1330,2021-05-03,321.9583333333333,,321.9583333333333
1330,2021-05-04,365.6666666666667,,365.6666666666667
1330,2021-05-05,254.04166666666666,,254.04166666666666
1330,2021-05-06,602.2083333333334,,602.2083333333334
1330,2021-05-07,208.58333333333334,,208.58333333333334
1330,2021-05-08,659.25,,659.25
1330,2021-05-09,327.8333333333333,,327.8333333333333
1330,2021-05-10,399.4166666666667,,399.4166666666667
1330,2021-05-11,371.2083333333333,,371.2083333333333
1330,2021-05-12,752.5416666666666,,752.5416666666666
1330,2021-05-13,745.0833333333334,,745.0833333333334
1330,2021-05-14,744.375,,744.375
1330,2021-05-15,703.6666666666666,,703.6666666666666
1330,2021-05-16,533.625,,533.625
1330,2021-05-17,727.6666666666666,,727.6666666666666
1330,2021-05-18,718.5,,718.5
1330,2021-05-19,640.5,,640.5
1330,2021-05-20,628.7916666666666,,628.7916666666666
1330,2021-05-21,561.5416666666666,,561.5416666666666
1330,2021-05-22,376.7083333333333,,376.7083333333333
1330,2021-05-23,399.375,,399.375
1330,2021-05-24,721.375,,721.375
1330,2021-05-25,549.0833333333334,,549.0833333333334
1330,2021-05-26,355.8333333333333,,355.8333333333333
1330,2021-05-27,649.75,,649.75
1330,2021-05-28,85.66666666666667,,85.66666666666667
1330,2021-05-29,397.7916666666667,,397.7916666666667
1330,2021-05-30,766.3333333333334,,766.3333333333334
1330,2021-05-31,736.8333333333334,,736.8333333333334
1330,2021-06-01,697.5416666666666,,697.5416666666666
1330,2021-06-02,550.6666666666666,,550.6666666666666
1330,2021-06-03,340.7083333333333,,340.7083333333333
1330,2021-06-04,504.3333333333333,,504.3333333333333
1330,2021-06-05,690.625,,690.625
1330,2021-06-06,719.9583333333334,,719.9583333333334
1330,2021-06-07,621.5833333333334,,621.5833333333334
1330,2021-06-08,497.0,,497.0
1330,2021-06-09,637.3333333333334,,637.3333333333334
1330,2021-06-10,733.6666666666666,,733.6666666666666
1330,2021-06-11,704.125,,704.125
1330,2021-06-12,728.0833333333334,,728.0833333333334
1330,2021-06-13,639.9166666666666,,639.9166666666666
1330,2021-06-14,377.375,,377.375
1330,2021-06-15,738.75,,738.75
1330,2021-06-16,771.75,,771.75
1330,2021-06-17,754.375,,754.375
1330,2021-06-18,276.6666666666667,,276.6666666666667
1330,2021-06-19,515.9583333333334,,515.9583333333334
1330,2021-06-20,653.875,,653.875
1330,2021-06-21,491.7083333333333,,491.7083333333333
1330,2021-06-22,425.9583333333333,,425.9583333333333
1330,2021-06-23,724.9583333333334,,724.9583333333334
1330,2021-06-24,701.5833333333334,,701.5833333333334
1330,2021-06-25,481.5,,481.5
1330,2021-06-26,306.2916666666667,,306.2916666666667
1330,2021-06-27,630.4166666666666,,630.4166666666666
1330,2021-06-28,684.3333333333334,,684.3333333333334
1330,2021-06-29,706.1666666666666,,706.1666666666666
1330,2021-06-30,416.625,,416.625
1330,2021-07-01,466.0833333333333,,466.0833333333333
1330,2021-07-02,425.5416666666667,,425.5416666666667
1330,2021-07-03,559.125,,559.125
1330,2021-07-04,640.2083333333334,,640.2083333333334
1330,2021-07-05,673.4166666666666,,673.4166666666666
1330,2021-07-06,371.6666666666667,,371.6666666666667
1330,2021-07-07,486.9166666666667,,486.9166666666667
1330,2021-07-08,178.75,,178.75
1330,2021-07-09,301.625,,301.625
1330,2021-07-10,460.375,,460.375
1330,2021-07-11,157.125,,157.125
1330,2021-07-12,332.2916666666667,,332.2916666666667
1330,2021-07-13,471.5833333333333,,471.5833333333333
1330,2021-07-14,47.291666666666664,,47.291666666666664
1330,2021-07-15,610.2916666666666,,610.2916666666666
1330,2021-07-16,369.625,,369.625
1330,2021-07-17,109.08333333333333,,109.08333333333333
1330,2021-07-18,470.2916666666667,,470.2916666666667
1330,2021-07-19,601.75,,601.75
1330,2021-07-20,567.75,,567.75
1330,2021-07-21,656.3333333333334,,656.3333333333334
1330,2021-07-22,549.1666666666666,,549.1666666666666
1330,2021-07-23,705.875,,705.875
1330,2021-07-24,385.5,,385.5
1330,2021-07-25,659.6666666666666,,659.6666666666666
1330,2021-07-26,530.3333333333334,,530.3333333333334
1330,2021-07-27,328.3333333333333,,328.3333333333333
1330,2021-07-28,690.1666666666666,,690.1666666666666
1330,2021-07-29,330.875,,330.875
1330,2021-07-30,550.75,,550.75
1330,2021-07-31,604.8333333333334,,604.8333333333334
1330,2021-08-01,339.875,,339.875
1330,2021-08-02,692.7916666666666,,692.7916666666666
1330,2021-08-03,608.6666666666666,,608.6666666666666
1330,2021-08-04,600.1666666666666,,600.1666666666666
1330,2021-08-05,641.25,,641.25
1330,2021-08-06,653.25,,653.25
1330,2021-08-07,574.1666666666666,,574.1666666666666
1330,2021-08-08,566.3333333333334,,566.3333333333334
1330,2021-08-09,620.1666666666666,,620.1666666666666
1330,2021-08-10,392.5,,392.5
1330,2021-08-11,569.6666666666666,,569.6666666666666
1330,2021-08-12,459.4583333333333,,459.4583333333333
1330,2021-08-13,342.5416666666667,,342.5416666666667
1330,2021-08-14,631.4166666666666,,631.4166666666666
1330,2021-08-15,607.9166666666666,,607.9166666666666
1330,2021-08-16,437.25,,437.25
1330,2021-08-17,370.8333333333333,,370.8333333333333
1330,2021-08-18,164.375,,164.375
1330,2021-08-19,511.6666666666667,,511.6666666666667
1330,2021-08-20,611.9166666666666,,611.9166666666666
1330,2021-08-21,475.5833333333333,,475.5833333333333
1330,2021-08-22,501.875,,501.875
1330,2021-08-23,516.3333333333334,,516.3333333333334
1330,2021-08-24,652.1666666666666,,652.1666666666666
1330,2021-08-25,502.7083333333333,,502.7083333333333
1330,2021-08-26,596.0,,596.0
1330,2021-08-27,584.4166666666666,,584.4166666666666
1330,2021-08-28,598.7916666666666,,598.7916666666666
1330,2021-08-29,516.5,,516.5